sat.trackr.live / text

‹ back to catalog

VSP RF A1

NORAD 59135 · 2024-043AP

PAYLOAD ACTIVE UNKNOWN

§ Identity

Operator
Country
BEL
Launch date
2024-03-04
Launch site
AFWTR
Launch vehicle
Mass (kg)
RCS (m²)

External: N2YO · Heavens-Above · Gunter

§ Orbital elements

Epoch: 2026-09-22T23:02:18.348576Z

Period
94.60 min
Inclination
97.5714°
Eccentricity
0.0001231
Mean motion
15.22165337 rev/d
Perigee alt
498.5 km
Apogee alt
500.2 km
Semi-major
6,877.4 km
B*
9.8896e-5
RAAN
42.9618°
Arg perigee
105.8081°
Mean anomaly
254.3290°
Rev number
14,187

§ Raw data

VSP RF A11 59135U 24043AP  26265.95993459  .00002197  00000+0  98896-4 0  99922 59135  97.5714  42.9618 0001231 105.8081 254.3290 15.22165337141879

JSON: /api/v1/satellites/59135 · /tle

For live sub-satellite position, see the globe view (requires WebGL).

§ Visibility from observer

Set your observer location to see the next 7 days of passes ≥ 10°. The values pass through the URL so the page stays shareable.

No JS? Fill the form by hand. The geolocation button needs JavaScript.